Regional & State Weather Roundups


799 
ASUS41 KRLX 161810
RWRRLX
West Virginia Regional Weather Roundup
National Weather Service Charleston WV
100 PM EST SAT DEC 16 2017
Note: "fair" indicates few or no clouds below 12,000 feet with no
significant weather and/or obstructions to visibility.
WVZ003-161900-
Northern Panhandle of West Virginia
  
CITY           SKY/WX    TMP DP  RH WIND       PRES   REMARKS
WHEELING       CLOUDY    38  25  59 SW13      30.03F                  
$$
WVZ009-161900-
Northwest West Virginia
  
CITY           SKY/WX    TMP DP  RH WIND       PRES   REMARKS
PARKERSBURG    SUNNY     45  26  47 SW9G17    30.12S                  
$$
WVZ006-161900-
Western West Virginia
  
CITY           SKY/WX    TMP DP  RH WIND       PRES   REMARKS
HUNTINGTON     SUNNY     47  25  42 W12G22    30.12F                  
$$
WVZ015-161900-
West Central West Virginia
  
CITY           SKY/WX    TMP DP  RH WIND       PRES   REMARKS
CHARLESTON     SUNNY     47  25  42 SW13G25   30.12F                  
$$
WVZ022-031-161900-
North Central West Virginia
  
CITY           SKY/WX    TMP DP  RH WIND       PRES   REMARKS
CLARKSBURG     MOSUNNY   45  26  47 SW17      30.08F                  
MORGANTOWN     CLOUDY    40  24  53 SW10G18   30.07S                  
$$
WVZ025-035-042-045-161900-
Southern West Virginia
  
CITY           SKY/WX    TMP DP  RH WIND       PRES   REMARKS
BECKLEY        SUNNY     39  25  57 W15       30.11F                  
LOGAN            N/A     45  27  49 SW7       30.13F                  
BLUEFIELD      SUNNY     37  22  54 W9G23     30.11F                  
LEWISBURG      SUNNY     41  25  53 SW13G22   30.10F                  
$$
WVZ047-161900-
Northern Mountains of West Virginia
  
CITY           SKY/WX    TMP DP  RH WIND       PRES   REMARKS
ELKINS         MOSUNNY   39  24  55 W8G18     30.06F                  
$$
WVZ052-161900-
Eastern Panhandle of West Virginia
  
CITY           SKY/WX    TMP DP  RH WIND       PRES   REMARKS
MARTINSBURG    MOSUNNY   46  21  37 S10       30.03F                  
PETERSBURG     SUNNY     47  24  40 W9G17     30.03F                  
$$